Rockland, ME

12:05 PM EDT on June 26, 2017 (GMT -0400)
Knox County Regional

Weather History for KRKD - November, 2013

Change the Weather History Date:

Wednesday, November 6, 2013

  Actual Average Record
Temperature  
Mean Temperature 42 °F -  
Max Temperature 53 °F 46 °F 84 °F (2001)
Min Temperature 30 °F 34 °F 21 °F (2012)
Degree Days  
Heating Degree Days 24    
Moisture  
Dew Point 41 °F    
Average Humidity 86    
Maximum Humidity 100    
Minimum Humidity 71    
Precipitation  
Precipitation 0.00 in - - ()
Sea Level Pressure  
Sea Level Pressure 30.30 in    
Wind  
Wind Speed 6 mph (SSW)    
Max Wind Speed 16 mph    
Max Gust Speed 29 mph    
Visibility 10 miles    
Events      
Averages and records for this station are not official NWS values.
T = Trace of Precipitation, MM = Missing Value Source: NWS Daily Summary

Daily Weather History Graph

Daily Weather History Graph

Search for Another Location

Airport or City:

Trip Planner

Search our weather history database for the weather conditions in past years. The results will help you decide how hot, cold, wet, or windy it might be!

Date:

Astronomy

Nov. 06, 2013 Rise Set
Actual Time 6:19 AM EST 4:19 PM EST
Civil Twilight 5:49 AM EST 4:50 PM EST
Nautical Twilight 5:14 AM EST 5:24 PM EST
Astronomical Twilight 4:41 AM EST 5:58 PM EST
Moon 9:34 AM EST (11/6) 7:17 PM EST (11/6)
Length of Visible Light 11h 00m
Length of Day
9h 59m
Waxing Crescent, 13% of the Moon is Illuminated
Nov 6
Waxing Crescent
Nov 10
First Quarter
Nov 17
Full
Nov 25
Last Quarter
Dec 2
New

Hourly Weather History & Observations

Time (EST) Temp. Windchill Dew Point Humidity Pressure Visibility Wind Dir Wind Speed Gust Speed Precip Events Conditions
12:15 AM 30.2 °F - 28.4 °F 93% 30.50 in 10.0 mi Calm Calm - N/A   Clear
12:35 AM 30.2 °F - 30.2 °F 100% 30.50 in 10.0 mi Calm Calm - N/A   Clear
12:55 AM 32.0 °F - 30.2 °F 93% 30.49 in 10.0 mi Calm Calm - N/A   Clear
1:15 AM 32.0 °F - 30.2 °F 93% 30.49 in 10.0 mi Calm Calm - N/A   Clear
1:35 AM 33.8 °F 30.8 °F 32.0 °F 93% 30.48 in 10.0 mi West 3.5 mph - N/A   Clear
1:55 AM 33.8 °F 30.8 °F 32.0 °F 93% 30.48 in 10.0 mi West 3.5 mph - N/A   Clear
2:15 AM 33.8 °F - 32.0 °F 93% 30.48 in 10.0 mi Calm Calm - N/A   Clear
2:35 AM 33.8 °F 30.8 °F 33.8 °F 100% 30.47 in 10.0 mi West 3.5 mph - N/A   Clear
2:55 AM 33.8 °F - 32.0 °F 93% 30.46 in 10.0 mi Calm Calm - N/A   Clear
3:15 AM 35.6 °F - 33.8 °F 93% 30.46 in 10.0 mi Calm Calm - N/A   Clear
3:35 AM 37.4 °F - 35.6 °F 93% 30.45 in 10.0 mi Calm Calm - N/A   Clear
3:55 AM 33.8 °F - 30.2 °F 87% 30.44 in 10.0 mi Calm Calm - N/A   Clear
4:15 AM 33.8 °F 30.8 °F 33.8 °F 100% 30.44 in 10.0 mi SW 3.5 mph - N/A   Clear
4:35 AM 33.8 °F 29.6 °F 30.2 °F 87% 30.44 in 10.0 mi SW 4.6 mph - N/A   Clear
4:55 AM 37.4 °F 32.8 °F 35.6 °F 93% 30.43 in 10.0 mi SSW 5.8 mph - N/A   Clear
5:15 AM 39.2 °F 35.0 °F 35.6 °F 87% 30.43 in 10.0 mi SW 5.8 mph - N/A   Clear
5:35 AM 39.2 °F - 37.4 °F 93% 30.43 in 10.0 mi Calm Calm - N/A   Clear
5:55 AM 35.6 °F 32.8 °F 33.8 °F 93% 30.44 in 10.0 mi West 3.5 mph - N/A   Clear
6:15 AM 35.6 °F 32.8 °F 33.8 °F 93% 30.44 in 10.0 mi West 3.5 mph - N/A   Partly Cloudy
6:35 AM 35.6 °F - 33.8 °F 93% 30.43 in 10.0 mi Calm Calm - N/A   Partly Cloudy
6:55 AM 35.6 °F - 35.6 °F 100% 30.43 in 10.0 mi Calm Calm - N/A   Clear
7:15 AM 33.8 °F - 33.8 °F 100% 30.43 in 9.0 mi Calm Calm - N/A   Clear
7:35 AM 33.8 °F 30.8 °F 32.0 °F 93% 30.42 in 10.0 mi WSW 3.5 mph - N/A   Clear
7:55 AM 35.6 °F 32.8 °F 33.8 °F 93% 30.42 in 10.0 mi SW 3.5 mph - N/A   Clear
8:15 AM 42.8 °F 41.1 °F 39.2 °F 87% 30.41 in 10.0 mi SW 3.5 mph - N/A   Scattered Clouds
8:35 AM 46.4 °F 42.4 °F 42.8 °F 87% 30.40 in 10.0 mi SW 8.1 mph - N/A   Partly Cloudy
8:55 AM 48.2 °F - 42.8 °F 82% 30.39 in 10.0 mi SSW 9.2 mph - N/A   Partly Cloudy
9:15 AM 48.2 °F - 42.8 °F 82% 30.39 in 10.0 mi SW 13.8 mph 19.6 mph N/A   Scattered Clouds
9:35 AM 50.0 °F - 42.8 °F 76% 30.39 in 10.0 mi SW 12.7 mph - N/A   Mostly Cloudy
9:55 AM 50.0 °F - 42.8 °F 76% 30.38 in 8.0 mi SW 15.0 mph 20.7 mph N/A   Overcast
10:15 AM 50.0 °F - 42.8 °F 76% 30.38 in 10.0 mi SW 11.5 mph 16.1 mph N/A   Overcast
10:35 AM 50.0 °F - 42.8 °F 76% 30.37 in 10.0 mi SSW 11.5 mph 17.3 mph N/A   Overcast
10:55 AM 50.0 °F - 42.8 °F 76% 30.35 in 10.0 mi SSW 11.5 mph 19.6 mph N/A   Overcast
11:15 AM 51.8 °F - 42.8 °F 71% 30.34 in 10.0 mi SSW 9.2 mph 18.4 mph N/A   Overcast
11:35 AM 51.8 °F - 42.8 °F 71% 30.32 in 10.0 mi South 13.8 mph 20.7 mph N/A   Overcast
11:55 AM 51.8 °F - 44.6 °F 76% 30.32 in 10.0 mi SSW 15.0 mph 23.0 mph N/A   Overcast
12:15 PM 51.8 °F - 44.6 °F 76% 30.31 in 10.0 mi SSW 15.0 mph 20.7 mph N/A   Overcast
12:35 PM 51.8 °F - 42.8 °F 71% 30.30 in 10.0 mi SSW 13.8 mph 20.7 mph N/A   Overcast
12:55 PM 51.8 °F - 44.6 °F 76% 30.29 in 10.0 mi SSW 13.8 mph 19.6 mph N/A   Overcast
1:15 PM 51.8 °F - 44.6 °F 76% 30.28 in 10.0 mi SSW 10.4 mph 18.4 mph N/A   Overcast
1:35 PM 51.8 °F - 44.6 °F 76% 30.27 in 10.0 mi South 15.0 mph 19.6 mph N/A   Overcast
1:55 PM 51.8 °F - 44.6 °F 76% 30.27 in 10.0 mi South 13.8 mph 21.9 mph N/A   Mostly Cloudy
2:15 PM 51.8 °F - 44.6 °F 76% 30.26 in 10.0 mi South 12.7 mph 17.3 mph N/A   Mostly Cloudy
2:35 PM 51.8 °F - 44.6 °F 76% 30.24 in 10.0 mi South 12.7 mph 19.6 mph N/A   Scattered Clouds
2:55 PM 51.8 °F - 44.6 °F 76% 30.24 in 10.0 mi South 12.7 mph 18.4 mph N/A   Partly Cloudy
3:15 PM 51.8 °F - 44.6 °F 76% 30.24 in 10.0 mi SSW 10.4 mph 18.4 mph N/A   Scattered Clouds
3:35 PM 50.0 °F - 44.6 °F 82% 30.24 in 10.0 mi SSW 13.8 mph 20.7 mph N/A   Scattered Clouds
3:55 PM 50.0 °F - 44.6 °F 82% 30.23 in 10.0 mi South 9.2 mph 17.3 mph N/A   Scattered Clouds
4:15 PM 48.2 °F - 44.6 °F 87% 30.22 in 10.0 mi South 9.2 mph 17.3 mph N/A   Partly Cloudy
4:35 PM 48.2 °F - 44.6 °F 87% 30.22 in 10.0 mi South 11.5 mph 20.7 mph N/A   Clear
4:55 PM 48.2 °F - 44.6 °F 87% 30.21 in 10.0 mi South 10.4 mph 20.7 mph N/A   Clear
5:15 PM 48.2 °F - 44.6 °F 87% 30.20 in 10.0 mi South 10.4 mph 17.3 mph N/A   Clear
5:35 PM 48.2 °F - 44.6 °F 87% 30.20 in 10.0 mi SSW 9.2 mph - N/A   Clear
5:55 PM 50.0 °F - 44.6 °F 82% 30.19 in 10.0 mi South 12.7 mph 19.6 mph N/A   Clear
6:15 PM 50.0 °F - 44.6 °F 82% 30.18 in 10.0 mi South 10.4 mph 18.4 mph N/A   Clear
6:35 PM 50.0 °F - 44.6 °F 82% 30.17 in 10.0 mi South 12.7 mph 19.6 mph N/A   Clear
6:55 PM 50.0 °F - 46.4 °F 87% 30.16 in 10.0 mi SSW 11.5 mph 18.4 mph N/A   Partly Cloudy
7:15 PM 51.8 °F - 46.4 °F 82% 30.14 in 10.0 mi South 11.5 mph 19.6 mph N/A   Scattered Clouds
7:35 PM 51.8 °F - 48.2 °F 88% 30.14 in 10.0 mi South 11.5 mph 16.1 mph N/A   Clear
7:55 PM 51.8 °F - 48.2 °F 88% 30.13 in 10.0 mi SSW 9.2 mph 18.4 mph N/A   Clear
8:15 PM 51.8 °F - 48.2 °F 88% 30.12 in 10.0 mi SSW 13.8 mph 21.9 mph N/A   Clear
8:35 PM 51.8 °F - 48.2 °F 88% 30.10 in 10.0 mi SSW 13.8 mph 18.4 mph N/A   Clear
8:55 PM 51.8 °F - 48.2 °F 88% 30.09 in 10.0 mi SSW 15.0 mph 21.9 mph N/A   Clear
9:15 PM 51.8 °F - 48.2 °F 88% 30.09 in 10.0 mi SW 12.7 mph 20.7 mph N/A   Scattered Clouds
9:35 PM 51.8 °F - 48.2 °F 88% 30.07 in 10.0 mi SSW 15.0 mph 23.0 mph N/A   Partly Cloudy
9:55 PM 51.8 °F - 48.2 °F 88% 30.06 in 10.0 mi SSW 16.1 mph 21.9 mph N/A   Clear
10:15 PM 51.8 °F - 48.2 °F 88% 30.05 in 10.0 mi SSW 13.8 mph 18.4 mph N/A   Scattered Clouds
10:35 PM 51.8 °F - 48.2 °F 88% 30.03 in 10.0 mi SSW 13.8 mph 20.7 mph N/A   Mostly Cloudy
10:55 PM 51.8 °F - 48.2 °F 88% 30.03 in 10.0 mi SSW 15.0 mph 28.8 mph N/A   Overcast
11:15 PM 51.8 °F - 50.0 °F 94% 30.03 in 10.0 mi SW 13.8 mph 21.9 mph N/A   Overcast
11:35 PM 53.6 °F - 50.0 °F 88% 30.01 in 10.0 mi SW 15.0 mph 23.0 mph N/A   Overcast
11:55 PM 53.6 °F - 50.0 °F 88% 30.00 in 10.0 mi SW 16.1 mph 28.8 mph N/A   Overcast